W4RJF Weather Reports


time (UTC)temp
C
wind
direction
speed
KPH
gust
KPH
rain 1hr
cm
rain 24hr
cm
rain mn
cm
humidity
%
barometer
mb
20260510184012 29 188 3.2 4.8 0.00 0.00 0.00 40 1015.2
20260510183511 28 279 0.0 3.2 0.00 0.00 0.00 42 1015.2
20260510183028 27 15 0.0 3.2 0.00 0.00 0.00 48 1015.2
20260510182512 27 184 1.6 3.2 0.00 0.00 0.00 46 1015.2
20260510182016 27 149 0.0 3.2 0.00 0.00 0.00 45 1015.1
20260510181521 28 149 0.0 3.2 0.00 0.00 0.00 43 1015.1
20260510181011 27 96 0.0 3.2 0.00 0.00 0.00 45 1015.1
20260510180509 27 94 1.6 6.4 0.00 0.00 0.00 44 1015.2
20260510180022 26 338 3.2 6.4 0.00 0.00 0.00 42 1015.3
20260510175507 26 339 1.6 4.8 0.00 0.00 0.00 46 1015.3
20260510175011 27 317 0.0 3.2 0.00 0.00 0.00 44 1015.3
20260510174525 27 213 0.0 3.2 0.00 0.00 0.00 45 1015.4
20260510174012 27 236 0.0 3.2 0.00 0.00 0.00 45 1015.3
20260510173014 26 203 0.0 4.8 0.00 0.00 0.00 46 1015.3
20260510172007 26 302 0.0 3.2 0.00 0.00 0.00 50 1015.3
20260510171518 26 333 1.6 3.2 0.00 0.00 0.00 46 1015.4
20260510171007 26 313 0.0 3.2 0.00 0.00 0.00 48 1015.4
20260510170506 26 303 0.0 3.2 0.00 0.00 0.00 48 1015.5
20260510170024 25 290 0.0 3.2 0.00 0.00 0.00 47 1015.4
20260510165509 25 277 0.0 3.2 0.00 0.00 0.00 51 1015.4
20260510165008 25 190 0.0 3.2 0.00 0.00 0.00 52 1015.5
20260510164524 25 201 0.0 3.2 0.00 0.00 0.00 54 1015.4
20260510164013 25 212 0.0 3.2 0.00 0.00 0.00 53 1015.5
20260510163509 25 247 0.0 3.2 0.00 0.00 0.00 53 1015.6
20260510163026 25 273 0.0 3.2 0.00 0.00 0.00 54 1015.6
20260510162509 24 299 0.0 3.2 0.00 0.00 0.00 53 1015.7
20260510162008 24 252 0.0 3.2 0.00 0.00 0.00 59 1015.7
20260510161523 24 254 1.6 3.2 0.00 0.00 0.00 54 1015.7
20260510161011 25 82 0.0 3.2 0.00 0.00 0.00 54 1015.7
20260510160505 24 86 1.6 3.2 0.00 0.00 0.00 56 1015.7
20260510160033 24 322 0.0 3.2 0.00 0.00 0.00 55 1015.8
20260510155509 24 101 0.0 3.2 0.00 0.00 0.00 56 1015.9
20260510155011 24 82 1.6 3.2 0.00 0.00 0.00 57 1015.9
20260510154524 23 265 0.0 3.2 0.00 0.00 0.00 56 1016.0
20260510154012 24 90 0.0 3.2 0.00 0.00 0.00 57 1016.1
20260510153507 23 165 0.0 6.4 0.00 0.00 0.00 57 1016.1
20260510153029 23 317 1.6 6.4 0.00 0.00 0.00 59 1016.2
20260510152510 23 352 1.6 4.8 0.00 0.00 0.00 59 1016.1
20260510152010 23 15 0.0 3.2 0.00 0.00 0.00 59 1016.0
20260510151527 23 65 0.0 3.2 0.00 0.00 0.00 61 1015.9
20260510151007 23 105 0.0 3.2 0.00 0.00 0.00 62 1015.9
20260510150508 23 282 0.0 4.8 0.00 0.00 0.00 61 1015.9
20260510150023 23 98 0.0 3.2 0.00 0.00 0.00 65 1015.8
20260510145512 22 335 1.6 4.8 0.00 0.00 0.00 64 1015.9
20260510145009 22 306 0.0 4.8 0.00 0.00 0.00 63 1015.9
20260510144528 22 327 1.6 4.8 0.00 0.00 0.00 64 1015.9
20260510144009 22 306 0.0 4.8 0.00 0.00 0.00 64 1015.8
20260510143511 22 38 1.6 3.2 0.00 0.00 0.00 65 1015.8
20260510143025 22 121 0.0 3.2 0.00 0.00 0.00 68 1015.9
20260510142510 22 94 0.0 3.2 0.00 0.00 0.00 66 1015.8
20260510142015 21 352 0.0 3.2 0.00 0.00 0.00 69 1015.8
20260510141526 21 323 0.0 3.2 0.00 0.00 0.00 70 1015.8
20260510141009 21 317 0.0 4.8 0.00 0.00 0.00 72 1015.9
20260510140514 21 287 1.6 4.8 0.00 0.00 0.00 73 1015.9
20260510140016 21 275 0.0 3.2 0.00 0.00 0.00 75 1015.8
20260510135508 20 272 0.0 3.2 0.00 0.00 0.00 78 1016.0
20260510135007 20 293 0.0 3.2 0.00 0.00 0.00 80 1016.0
20260510134525 20 263 0.0 3.2 0.00 0.00 0.00 79 1015.9
20260510134010 20 279 0.0 3.2 0.00 0.00 0.00 81 1015.9
20260510133511 20 244 0.0 3.2 0.00 0.00 0.00 82 1015.9
20260510133022 20 348 0.0 3.2 0.00 0.00 0.00 83 1015.8
20260510132510 19 15 0.0 3.2 0.00 0.00 0.00 83 1015.8
20260510132012 19 227 0.0 3.2 0.00 0.00 0.00 84 1015.7
20260510131524 19 225 0.0 3.2 0.00 0.00 0.00 85 1015.7
20260510131015 18 319 0.0 3.2 0.00 0.00 0.00 86 1015.6
20260510130510 18 105 0.0 3.2 0.00 0.00 0.00 88 1015.6
20260510130027 18 282 0.0 3.2 0.00 0.00 0.00 88 1015.6
20260510125508 18 281 0.0 3.2 0.00 0.00 0.00 89 1015.5
20260510125009 18 295 0.0 3.2 0.00 0.00 0.00 89 1015.5
20260510124521 18 12 0.0 3.2 0.00 0.00 0.00 90 1015.5
20260510124006 18 154 0.0 3.2 0.00 0.00 0.00 90 1015.5
20260510123508 17 13 0.0 1.6 0.00 0.00 0.00 91 1015.4
20260510123025 17 207 0.0 0.0 0.00 0.00 0.00 91 1015.3
20260510122511 17 207 0.0 0.0 0.00 0.00 0.00 92 1015.3
20260510122011 17 207 0.0 0.0 0.00 0.00 0.00 93 1015.3
20260510121507 17 207 0.0 1.6 0.00 0.00 0.00 93 1015.2
20260510121003 17 207 0.0 1.6 0.00 0.00 0.00 94 1015.2
20260510120012 16 207 0.0 0.0 0.00 0.00 0.00 95 1015.2
20260510115010 16 207 0.0 0.0 0.00 0.00 0.00 95 1015.1
20260510114503 16 207 0.0 0.0 0.00 0.00 0.00 95 1015.1
20260510114003 15 207 0.0 0.0 0.00 0.00 0.00 95 1015.0
20260510113502 15 207 0.0 0.0 0.00 0.00 0.00 96 1014.9
20260510113003 15 207 0.0 0.0 0.00 0.00 0.00 96 1014.7
20260510112504 15 207 0.0 0.0 0.00 0.00 0.00 95 1014.6
20260510111505 15 207 0.0 0.0 0.00 0.00 0.00 95 1014.6
20260510110018 15 207 0.0 0.0 0.00 0.00 0.00 96 1014.4
20260510105004 15 207 0.0 1.6 0.00 0.00 0.00 95 1014.3
20260510104516 15 207 0.0 1.6 0.00 0.00 0.00 95 1014.2
20260510103502 15 27 0.0 0.0 0.00 0.00 0.00 95 1014.0
20260510103004 15 27 0.0 0.0 0.00 0.00 0.00 95 1013.9
20260510102503 15 27 0.0 0.0 0.00 0.00 0.00 95 1013.8
20260510102003 15 27 0.0 0.0 0.00 0.00 0.00 95 1013.8
20260510101511 15 95 0.0 0.0 0.00 0.00 0.00 95 1013.6
20260510101003 15 258 0.0 0.0 0.00 0.00 0.00 95 1013.6
20260510100505 15 258 0.0 0.0 0.00 0.00 0.00 95 1013.5
20260510100011 15 258 0.0 0.0 0.00 0.00 0.00 95 1013.5
20260510095504 15 258 0.0 0.0 0.00 0.00 0.00 95 1013.6
20260510095005 15 258 0.0 0.0 0.00 0.00 0.00 95 1013.5
20260510094008 15 258 0.0 0.0 0.00 0.00 0.00 95 1013.3
20260510093512 15 258 0.0 0.0 0.00 0.00 0.00 95 1013.3
20260510092005 15 258 0.0 0.0 0.00 0.00 0.00 95 1013.0
20260510091002 15 263 0.0 0.0 0.00 0.00 0.00 95 1012.9
20260510090503 15 263 0.0 0.0 0.00 0.00 0.00 95 1012.8
20260510090011 15 263 0.0 0.0 0.00 0.00 0.00 95 1012.8
20260510085504 15 263 0.0 0.0 0.00 0.00 0.00 95 1012.8
20260510085003 15 263 0.0 0.0 0.00 0.00 0.00 95 1012.7
20260510084520 15 263 0.0 0.0 0.00 0.00 0.00 95 1012.5
20260510084004 15 263 0.0 0.0 0.00 0.00 0.00 95 1012.5
20260510083504 15 263 0.0 0.0 0.00 0.00 0.00 95 1012.5
20260510082508 15 263 0.0 0.0 0.00 0.00 0.00 95 1012.7
20260510082010 15 263 0.0 0.0 0.00 0.00 0.00 95 1012.6
20260510081005 15 263 0.0 0.0 0.00 0.00 0.00 95 1012.6
20260510080504 15 263 0.0 0.0 0.00 0.00 0.00 95 1012.6
20260510080009 15 263 0.0 0.0 0.00 0.00 0.00 95 1012.6
20260510075503 15 263 0.0 0.0 0.00 0.00 0.00 95 1012.5
20260510075006 15 263 0.0 0.0 0.00 0.00 0.00 95 1012.5
20260510074513 15 263 0.0 0.0 0.00 0.00 0.00 95 1012.5
20260510074007 15 263 0.0 0.0 0.00 0.00 0.00 95 1012.4
20260510073505 15 263 0.0 0.0 0.00 0.00 0.00 95 1012.5
20260510073015 15 263 0.0 0.0 0.00 0.00 0.00 95 1012.5
20260510072505 15 263 0.0 0.0 0.00 0.00 0.00 95 1012.3
20260510072010 15 263 0.0 0.0 0.00 0.00 0.00 95 1012.3
20260510071526 15 263 0.0 0.0 0.00 0.00 0.00 95 1012.4
20260510071009 15 263 0.0 0.0 0.00 0.00 0.00 95 1012.3
20260510070508 15 263 0.0 0.0 0.00 0.00 0.00 95 1012.2
20260510070032 15 263 0.0 0.0 0.00 0.00 0.00 95 1012.3
20260510065504 15 263 0.0 0.0 0.00 0.00 0.00 95 1012.5
20260510065004 15 263 0.0 0.0 0.00 0.00 0.00 95 1012.5
20260510064510 15 263 0.0 0.0 0.00 0.00 0.00 95 1012.5
20260510064003 15 263 0.0 0.0 0.00 0.00 0.00 95 1012.5
20260510063503 15 263 0.0 0.0 0.00 0.00 0.00 95 1012.3
20260510063016 15 263 0.0 0.0 0.00 0.00 0.00 95 1012.3
20260510062506 15 263 0.0 0.0 0.00 0.00 0.00 95 1012.2
20260510062007 15 263 0.0 0.0 0.00 0.00 0.00 95 1012.2
20260510061529 15 263 0.0 0.0 0.00 0.00 0.00 95 1012.2
20260510061007 15 263 0.0 0.0 0.00 0.00 0.00 95 1012.2
20260510060509 15 263 0.0 0.0 0.00 0.00 0.00 95 1012.3
20260510060023 15 263 0.0 0.0 0.00 0.00 0.00 95 1012.3
20260510055510 15 263 0.0 0.0 0.00 0.00 0.00 95 1012.3
20260510055008 15 263 0.0 0.0 0.00 0.00 0.00 95 1012.5
20260510054526 15 263 0.0 0.0 0.00 0.00 0.00 95 1012.5
20260510054013 15 263 0.0 0.0 0.00 0.00 0.00 95 1012.7
20260510053503 15 263 0.0 0.0 0.00 0.00 0.00 95 1012.5
20260510053013 15 263 0.0 0.0 0.00 0.00 0.00 95 1012.7
20260510052506 15 263 0.0 0.0 0.00 0.00 0.00 95 1012.8
20260510052006 15 263 0.0 0.0 0.00 0.00 0.00 95 1012.8
20260510051522 15 263 0.0 0.0 0.00 0.00 0.00 95 1013.0
20260510051040 15 263 0.0 0.0 0.00 0.00 0.00 95 1012.9
20260510050508 15 263 0.0 0.0 0.00 0.00 0.00 94 1012.8
20260510045508 15 263 0.0 0.0 0.00 0.00 0.00 94 1013.0
20260510045009 15 263 0.0 0.0 0.00 0.00 0.00 94 1013.0
20260510044524 15 263 0.0 0.0 0.00 0.00 0.00 94 1013.0
20260510044008 16 263 0.0 0.0 0.00 0.00 0.00 94 1013.0
20260510043511 16 263 0.0 0.0 0.00 0.00 0.00 94 1013.0
20260510042508 16 263 0.0 0.0 0.00 0.00 0.00 94 1012.9
20260510042005 16 263 0.0 0.0 0.00 0.00 0.00 94 1012.8
20260510041523 16 263 0.0 0.0 0.00 0.00 0.00 94 1012.9
20260510041006 16 263 0.0 0.0 0.00 0.00 0.00 94 1012.8
20260510040508 16 263 0.0 0.0 0.00 0.00 0.00 94 1012.8
20260510040026 16 263 0.0 0.0 0.00 0.00 0.00 94 1012.8
20260510035507 16 263 0.0 0.0 0.00 0.00 0.00 94 1012.8
20260510035010 16 263 0.0 0.0 0.00 0.00 0.00 94 1012.7
20260510034523 16 263 0.0 0.0 0.00 0.00 0.00 94 1012.7
20260510034009 16 263 0.0 0.0 0.00 0.00 0.00 94 1012.7
20260510033509 16 263 0.0 0.0 0.00 0.00 0.00 94 1012.7
20260510033024 16 263 0.0 0.0 0.00 0.00 0.00 94 1012.7
20260510032510 16 263 0.0 0.0 0.00 0.00 0.00 94 1012.7
20260510032012 16 263 0.0 0.0 0.00 0.00 0.00 94 1012.7
20260510031519 16 263 0.0 0.0 0.00 0.00 0.00 94 1012.7
20260510031006 16 263 0.0 0.0 0.00 0.00 0.00 94 1012.7
20260510030505 16 263 0.0 0.0 0.00 0.00 0.00 93 1012.7
20260510030027 16 263 0.0 0.0 0.00 0.00 0.00 93 1012.6
20260510025511 16 263 0.0 0.0 0.00 0.00 0.00 93 1012.6
20260510025008 16 263 0.0 0.0 0.00 0.00 0.00 93 1012.7
20260510024523 16 263 0.0 0.0 0.00 0.00 0.00 93 1012.7
20260510024005 16 263 0.0 0.0 0.00 0.00 0.00 93 1012.6
20260510023508 16 263 0.0 0.0 0.00 0.00 0.00 92 1012.5
20260510023026 16 263 0.0 0.0 0.00 0.00 0.00 92 1012.6
20260510022513 16 263 0.0 0.0 0.00 0.00 0.00 92 1012.5
20260510022008 17 263 0.0 0.0 0.00 0.00 0.00 92 1012.5
20260510021535 17 263 0.0 0.0 0.00 0.00 0.00 92 1012.5
20260510021008 17 263 0.0 0.0 0.00 0.00 0.00 92 1012.4
20260510020503 17 263 0.0 0.0 0.00 0.00 0.00 92 1012.2
20260510020030 17 263 0.0 0.0 0.00 0.00 0.00 92 1012.2
20260510015510 17 263 0.0 0.0 0.00 0.00 0.00 92 1012.4
20260510015008 17 263 0.0 0.0 0.00 0.00 0.00 92 1012.4
20260510014523 17 263 0.0 0.0 0.00 0.00 0.00 92 1012.3
20260510014008 17 263 0.0 0.0 0.00 0.00 0.00 91 1012.2
20260510013514 17 263 0.0 0.0 0.00 0.00 0.00 91 1012.1
20260510013029 17 263 0.0 0.0 0.00 0.00 0.00 91 1012.0
20260510012510 17 263 0.0 0.0 0.00 0.00 0.00 90 1011.9
20260510012011 17 263 0.0 0.0 0.00 0.00 0.00 90 1011.8
20260510011525 17 263 0.0 0.0 0.00 0.00 0.00 90 1011.7
20260510011011 17 263 0.0 0.0 0.00 0.00 0.00 89 1011.7
20260510010509 17 263 0.0 0.0 0.00 0.00 0.00 89 1011.7
20260510010025 18 263 0.0 0.0 0.00 0.00 0.00 89 1011.6
20260510005505 18 263 0.0 0.0 0.00 0.00 0.00 88 1011.6
20260510005005 18 263 0.0 0.0 0.00 0.00 0.00 88 1011.5
20260510004011 18 263 0.0 0.0 0.00 0.00 0.00 87 1011.4
20260510003507 18 263 0.0 0.0 0.00 0.00 0.00 87 1011.4
20260510003023 18 263 0.0 0.0 0.00 0.00 0.00 86 1011.4
20260510002508 19 263 0.0 0.0 0.00 0.00 0.00 85 1011.4
20260510002011 19 263 0.0 0.0 0.00 0.00 0.00 84 1011.5
20260510001536 19 263 0.0 0.0 0.00 0.00 0.00 84 1011.4
20260510001010 20 263 0.0 0.0 0.00 0.00 0.00 83 1011.5
20260510000512 20 263 0.0 0.0 0.00 0.00 0.00 83 1011.4
20260510000027 20 263 0.0 0.0 0.00 0.00 0.00 82 1011.4
20260509235507 20 263 0.0 0.0 0.00 0.00 0.00 82 1011.3
20260509235013 20 263 0.0 0.0 0.00 0.00 0.00 82 1011.3
20260509234525 20 263 0.0 0.0 0.00 0.00 0.00 82 1011.3
20260509234008 20 263 0.0 0.0 0.00 0.00 0.00 81 1011.2
20260509233509 20 263 0.0 0.0 0.00 0.00 0.00 80 1011.1
20260509233023 21 263 0.0 0.0 0.00 0.00 0.00 80 1011.0
20260509232509 21 263 0.0 0.0 0.00 0.00 0.00 78 1010.7
20260509232010 21 263 0.0 0.0 0.00 0.00 0.00 79 1010.8
20260509231006 21 263 0.0 0.0 0.00 0.00 0.00 77 1010.8
20260509230510 21 263 0.0 0.0 0.00 0.00 0.00 77 1010.7
20260509230027 21 263 0.0 0.0 0.00 0.00 0.00 76 1010.7
20260509225508 21 263 0.0 0.0 0.00 0.00 0.00 76 1010.7
20260509225012 21 263 0.0 0.0 0.00 0.00 0.00 75 1010.7
20260509224526 21 263 0.0 0.0 0.00 0.00 0.00 75 1010.6
20260509224012 21 263 0.0 0.0 0.00 0.00 0.00 76 1010.6
20260509223506 21 263 0.0 0.0 0.00 0.00 0.00 74 1010.8
20260509222507 21 263 0.0 0.0 0.00 0.00 0.00 75 1010.7
20260509222013 21 263 0.0 0.0 0.00 0.00 0.00 75 1010.7
20260509221009 21 263 0.0 1.6 0.00 0.00 0.00 75 1010.8
20260509220502 21 215 0.0 0.0 0.00 0.00 0.00 75 1010.8
20260509215503 21 215 0.0 3.2 0.00 0.00 0.00 74 1010.7
20260509215003 22 215 0.0 3.2 0.00 0.00 0.00 74 1010.7
20260509214520 22 214 0.0 3.2 0.00 0.00 0.00 75 1010.8
20260509214005 22 214 0.0 3.2 0.00 0.00 0.00 74 1010.7
20260509213503 22 214 0.0 3.2 0.00 0.00 0.00 74 1010.6
20260509213017 22 261 0.0 1.6 0.00 0.00 0.00 74 1010.6
20260509212509 21 207 0.0 1.6 0.00 0.00 0.00 74 1010.7
20260509212006 21 207 0.0 3.2 0.00 0.00 0.00 73 1010.6
20260509211522 21 207 0.0 3.2 0.00 0.00 0.00 75 1010.5
20260509211008 21 207 0.0 3.2 0.00 0.00 0.00 75 1010.6
20260509210508 21 211 0.0 1.6 0.00 0.00 0.00 73 1010.5
20260509205504 22 196 0.0 3.2 0.00 0.00 0.00 72 1010.4
20260509204523 22 253 0.0 3.2 0.00 0.00 0.00 72 1010.3
20260509204003 21 198 0.0 3.2 0.00 0.00 0.00 73 1010.4
20260509203506 21 212 0.0 3.2 0.00 0.00 0.00 72 1010.6
20260509202506 22 202 0.0 3.2 0.00 0.00 0.00 73 1010.3
20260509201521 21 200 1.6 3.2 0.00 0.00 0.00 73 1010.8
20260509200508 21 205 1.6 8.0 0.00 0.00 0.00 72 1010.7
20260509200022 21 203 0.0 3.2 0.00 0.00 0.00 73 1010.9
20260509195509 21 184 0.0 3.2 0.00 0.00 0.00 73 1011.0
20260509195006 21 189 0.0 4.8 0.00 0.00 0.00 74 1011.0
20260509194510 21 232 0.0 4.8 0.00 0.00 0.00 73 1011.0
20260509193504 21 188 0.0 3.2 0.00 0.00 0.00 72 1011.1
20260509193013 21 188 0.0 3.2 0.00 0.00 0.00 71 1011.1
20260509192505 21 209 0.0 3.2 0.00 0.00 0.00 71 1011.1
20260509192005 21 209 0.0 8.0 0.00 0.00 0.00 69 1011.2
20260509191516 22 240 0.0 8.0 0.00 0.00 0.00 68 1011.3
20260509191010 22 208 1.6 4.8 0.00 0.00 0.00 65 1011.3
20260509190507 22 200 1.6 3.2 0.00 0.00 0.00 67 1011.2
20260509190027 22 214 0.0 3.2 0.00 0.00 0.00 69 1011.1
20260509185506 22 190 0.0 3.2 0.00 0.00 0.00 69 1011.3
20260509184528 21 279 0.0 4.8 0.00 0.00 0.00 68 1011.3